Home > Time Zones > World Clock > Weather > Italy > Rome > Past weeks

Flag for Italy Weather past 2 weeks in Rome, Italy

Now
63 °F

Passing clouds.


Feels Like: 63 °F
Forecast: 54 / 64 °F
Wind: 7 mph from South

Location: Rome / Ciampino

Current Time: Apr 27, 2015 at 4:54:56 AM

Latest Report: Apr 27, 2015 at 4:15 AM


Visibility: N/A

Pressure: 29.83 "Hg

Humidity: 56%

Dew point: 46 °F

Location of RomeLocation

Historic Weather in Rome — Graph

°F

Rome temperature yesterday

Maximum temperature yesterday: 68 °F (at 10:45 AM)
Minimum temperature yesterday: 55 °F (at 3:15 AM)
Average temperature yesterday: 61 °F

Past Weeks' High & Low Weather Summary

 TemperatureHumidityPressure
High75 °F (Apr 22, 1:15 PM)94% (Apr 14, 2:15 AM)30.36 "Hg (Apr 14, 2:15 AM)
Low45 °F (Apr 12, 6:15 AM)19% (Apr 22, 2:15 PM)29.83 "Hg (Apr 27, 3:45 AM)
Average60 °F67%30.10 "Hg
* Reported Apr 12 3:15 AM — Apr 27 3:45 AM, Rome, Weather by CustomWeather, © 2015

Note: Actual official high and low records may vary slightly from our data, if they occured in-between our weather recording intervals... More about our weather records

Advertising

Rome weather history for previous 24 hours

 ConditionsComfort  
Time TempWeatherWind HumidityBarometerVisibility
3:45 AM
Mon, Apr 27
61 °FPassing clouds.7 mph55%29.83 "HgN/A
3:15 AM61 °FPassing clouds.5 mph59%29.86 "HgN/A
2:45 AM59 °FPassing clouds.6 mph68%29.86 "HgN/A
2:15 AM59 °FPassing clouds.2 mph77%29.89 "HgN/A
1:15 AM59 °FPassing clouds.8 mph82%29.89 "HgN/A
12:45 AM59 °FPassing clouds.8 mph82%29.89 "HgN/A
12:15 AM59 °FPassing clouds.7 mph63%29.89 "HgN/A
11:45 PM
Sun, Apr 26
59 °FPassing clouds.8 mph63%29.89 "HgN/A
11:15 PM59 °FPassing clouds.9 mph82%29.89 "HgN/A
10:45 PM61 °FPassing clouds.8 mph77%29.89 "HgN/A
10:15 PM61 °FPassing clouds.10 mph77%29.89 "HgN/A
9:45 PM61 °FPassing clouds.12 mph83%29.89 "HgN/A
9:15 PM61 °FPassing clouds.8 mph83%29.89 "HgN/A
8:45 PM63 °FPartly sunny.7 mph73%29.89 "HgN/A
8:15 PM63 °FScattered clouds.10 mph68%29.89 "HgN/A
7:45 PM63 °FScattered clouds.9 mph73%29.89 "HgN/A
7:15 PM64 °FScattered clouds.10 mph68%29.89 "HgN/A
6:45 PM64 °FScattered clouds.14 mph68%29.89 "HgN/A
6:15 PM64 °FPassing clouds.13 mph68%29.92 "HgN/A
5:45 PM63 °FPassing clouds.13 mph73%29.92 "HgN/A
5:15 PM64 °FPassing clouds.13 mph68%29.92 "HgN/A
4:45 PM66 °FPassing clouds.14 mph60%29.92 "HgN/A
4:15 PM68 °FPassing clouds.12 mph64%29.92 "HgN/A
3:45 PM66 °FScattered clouds.13 mph64%29.92 "HgN/A
3:15 PM66 °FScattered clouds.13 mph60%29.95 "HgN/A
2:45 PM66 °FScattered clouds.13 mph64%29.95 "HgN/A
2:15 PM66 °FBroken clouds.13 mph68%29.95 "HgN/A
1:45 PM66 °FScattered clouds.14 mph68%29.95 "HgN/A
1:15 PM66 °FScattered clouds.12 mph68%29.95 "HgN/A
12:45 PM68 °FScattered clouds.12 mph60%29.95 "HgN/A
12:15 PM68 °FPassing clouds.10 mph60%29.95 "HgN/A
11:45 AM68 °FSunny.10 mph60%29.95 "Hg10 mi
11:15 AM68 °FSunny.8 mph60%29.98 "Hg10 mi
10:45 AM68 °FPassing clouds.8 mph60%29.98 "HgN/A
10:15 AM66 °FSunny.6 mph64%29.98 "Hg10 mi
9:45 AM64 °FPassing clouds.3 mph68%29.98 "HgN/A
9:15 AM63 °FSunny.No wind68%29.98 "Hg10 mi
8:45 AM59 °FSunny.No wind77%29.98 "Hg10 mi
8:15 AM57 °FSunny.No wind82%29.98 "Hg10 mi
7:45 AM55 °FSunny.No wind88%29.98 "Hg10 mi
7:15 AM55 °FSunny.No wind88%29.98 "Hg10 mi
6:45 AM55 °FClear.No wind88%29.98 "Hg10 mi
6:15 AM55 °FClear.No wind82%29.98 "Hg10 mi
5:45 AM55 °FClear.No wind88%29.98 "Hg6 mi
5:15 AM55 °FClear.No wind88%29.98 "Hg5 mi
4:45 AM55 °FClear.1 mph88%29.98 "Hg5 mi
4:15 AM55 °FClear.1 mph88%29.98 "Hg5 mi
Weather by CustomWeather, © 2015

See weather overviewHow to use our weather pages